Torna al catalogo

STARLINK-4645

AttivoComunicazioniVLEO
NORAD 53743·PAYLOAD·🇺🇸 United States

Lanciato Sep 5, 2022 da Cape Canaveral Space Force Station

Loading…

Prossimi Passaggi (prossime 24 ore)

TLE

AggiornatoSource: CelesTrak SupGP

Epoca: Sep 14, 2026, 20:54 UTC

1 53743C 22107AV  26257.87131944 -.00039197  00000+0 -11583-2 0  2570
2 53743  53.1562 119.9020 0001263  89.7595  51.5408 15.34404164    19

Traccia STARLINK-4645 in tempo reale con AllMySat

Download on the App Store